Vancouver, WA
on Saturday, December 22, 2012

Saturday
Previous Day Next Day
Daily Summary
 ActualAverageRecord
Temperature
Mean Temperature °F 40°F  
Max Temperature 49°F 46°F 61°F (1940)
Min Temperature 39°F 34°F 5°F (1998)
Degree Days
Heating Degree Days 21    
Month to date heating degree days 463  
Since 1 July heating degree days 1285  
Cooling Degree Days 0    
Month to date cooling degree days 0  
Year to date cooling degree days 398  
Moisture
Dew Point 37°F   
Average Humidity 77    
Maximum Humidity 92    
Minimum Humidity 61    
Precipitation
Precipitation 0.14 in 0.24 in 2.00 in (1936)
Month to date precipitation 6.16 4.73  
Year to date precipitation 44.48 37.10  
Snow
Snow 0.00 in in in ()
Month to date snowfall 0.0  
Since 1 July snowfall 0.0  
Snow Depth 0.00 in   
Wind
Wind Speed 7 mph   
Max Wind Speed 21 mph   
Max Gust Speed 35 mph   
Visibility 10 miles   
Events Rain   

Key: T is trace of precipitation, MM is missing value
Source: NWS Daily Summary
Time(PST)TemperatureDew PointHumidity Pressure Visibility Wind DirectionWind SpeedGust SpeedPrecipitationEvents Conditions
12:53 AM 41.0°F 37.9°F 89% 29.61 in 10.0 miles Calm Calm - 0.00 in   Overcast
1:53 AM 39.9°F 37.9°F 93% 29.60 in 10.0 miles Calm Calm - 0.01 in Rain Light Rain
2:53 AM 43.0°F 37.9°F 82% 29.58 in 10.0 miles East 8.1 mph - 0.00 in Rain Light Rain
3:53 AM 44.1°F 37.9°F 79% 29.56 in 10.0 miles ESE 6.9 mph - 0.00 in Rain Light Rain
4:53 AM 42.1°F 39.0°F 89% 29.56 in 9.0 miles Calm Calm - 0.04 in Rain Light Rain
5:53 AM 42.1°F 39.0°F 89% 29.55 in 10.0 miles Calm Calm - 0.05 in Rain Light Rain
6:22 AM 42.8°F 39.2°F 87% 29.55 in 10.0 miles Calm Calm - 0.01 in Rain Light Rain
6:53 AM 42.1°F 39.0°F 89% 29.56 in 10.0 miles SE 4.6 mph - 0.02 in   Overcast
7:07 AM 42.8°F 39.2°F 87% 29.56 in 10.0 miles SE 4.6 mph - 0.00 in Rain Light Rain
7:53 AM 43.0°F 39.0°F 86% 29.55 in 10.0 miles ESE 8.1 mph - 0.01 in   Overcast
8:53 AM 43.0°F 39.0°F 86% 29.57 in 10.0 miles ESE 8.1 mph - N/A   Mostly Cloudy
9:53 AM 46.0°F 39.9°F 79% 29.60 in 10.0 miles ESE 6.9 mph - N/A   Overcast
10:53 AM 46.9°F 39.0°F 74% 29.60 in 10.0 miles SSE 8.1 mph 16.1 mph 0.00 in Rain Light Rain
11:53 AM 48.0°F 37.9°F 68% 29.60 in 10.0 miles South 8.1 mph 21.9 mph 0.01 in   Mostly Cloudy
12:53 PM 48.0°F 36.0°F 63% 29.62 in 10.0 miles South 15.0 mph 24.2 mph N/A   Mostly Cloudy
1:53 PM 48.0°F 36.0°F 63% 29.63 in 10.0 miles South 11.5 mph 21.9 mph N/A   Mostly Cloudy
2:53 PM 46.9°F 36.0°F 66% 29.66 in 10.0 miles South 11.5 mph 18.4 mph N/A   Mostly Cloudy
3:53 PM 45.0°F 37.0°F 74% 29.68 in 10.0 miles SSE 8.1 mph - 0.00 in   Mostly Cloudy
4:53 PM 45.0°F 37.0°F 74% 29.70 in 10.0 miles SE 5.8 mph - N/A   Overcast
5:11 PM 44.6°F 37.4°F 76% 29.71 in 10.0 miles South 8.1 mph - 0.00 in Rain Light Rain
5:43 PM 44.6°F 37.4°F 76% 29.71 in 10.0 miles SSE 5.8 mph - 0.00 in Rain Light Rain
5:53 PM 43.0°F 36.0°F 76% 29.71 in 10.0 miles ESE 5.8 mph - 0.00 in Rain Light Rain
6:53 PM 44.1°F 37.0°F 76% 29.71 in 10.0 miles SE 5.8 mph - 0.00 in   Overcast
7:53 PM 45.0°F 36.0°F 71% 29.74 in 10.0 miles SSE 10.4 mph - N/A   Overcast
8:12 PM 44.6°F 35.6°F 71% 29.75 in 10.0 miles South 9.2 mph 21.9 mph N/A   Overcast
8:23 PM 44.6°F 35.6°F 71% 29.75 in 10.0 miles SSE 6.9 mph 17.3 mph N/A   Overcast
8:53 PM 44.1°F 36.0°F 73% 29.76 in 10.0 miles SSE 9.2 mph - 0.00 in Rain Light Rain
9:22 PM 44.6°F 35.6°F 71% 29.77 in 10.0 miles SSE 9.2 mph 17.3 mph N/A   Overcast
9:53 PM 44.1°F 36.0°F 73% 29.78 in 10.0 miles Variable 5.8 mph - N/A   Overcast
10:00 PM 44.6°F 35.6°F 71% 29.78 in 10.0 miles Variable 5.8 mph - N/A   Overcast
10:53 PM 43.0°F 35.1°F 74% 29.79 in 10.0 miles ESE 6.9 mph - N/A   Mostly Cloudy
11:53 PM 43.0°F 35.1°F 74% 29.80 in 10.0 miles ESE 5.8 mph - N/A   Overcast
Moon Phase
Dec. 22 Dec. 28 Jan. 04 Jan. 11 Jan. 18
Sunrise:07:48 AM (PST) Moon Rise:12:59 PM (PST)12/22
Sunset:04:30 PM (PST) Moon Set:02:30 AM (PST)12/22

Copyright © 2014 The Weather Underground, Inc.